TimeEDT,TemperatureF,Dew PointF,Humidity,Sea Level PressureIn,VisibilityMPH,Wind Direction,Wind SpeedMPH,Gust SpeedMPH,PrecipitationIn,Events,Conditions,WindDirDegrees,DateUTC
12:53 AM,82.0,73.0,74,30.04,9.0,SSE,5.8,-,N/A,,Partly Cloudy,160,2013-06-19 04:53:00
1:53 AM,82.0,75.9,82,30.01,9.0,SSE,6.9,-,N/A,,Partly Cloudy,150,2013-06-19 05:53:00
2:53 AM,82.0,75.9,82,30.03,9.0,Calm,Calm,-,N/A,,Partly Cloudy,0,2013-06-19 06:53:00
3:53 AM,82.0,75.0,79,30.02,9.0,Calm,Calm,-,N/A,,Partly Cloudy,0,2013-06-19 07:53:00
4:53 AM,81.0,75.0,82,30.02,9.0,Calm,Calm,-,N/A,,Partly Cloudy,0,2013-06-19 08:53:00
5:53 AM,81.0,75.0,82,30.01,9.0,SE,6.9,-,N/A,,Partly Cloudy,130,2013-06-19 09:53:00
6:53 AM,81.0,73.9,79,30.02,9.0,SE,6.9,-,N/A,,Partly Cloudy,140,2013-06-19 10:53:00
7:53 AM,82.9,73.9,74,30.05,9.0,South,5.8,-,N/A,,Scattered Clouds,170,2013-06-19 11:53:00
8:53 AM,82.9,73.9,74,30.05,8.0,SSE,8.1,-,N/A,,Scattered Clouds,160,2013-06-19 12:53:00
9:53 AM,86.0,73.9,67,30.04,8.0,SSE,12.7,-,N/A,,Partly Cloudy,160,2013-06-19 13:53:00
10:53 AM,87.1,72.0,61,30.04,9.0,SE,15.0,-,N/A,,Scattered Clouds,140,2013-06-19 14:53:00
11:53 AM,87.1,75.0,67,30.05,8.0,SE,13.8,-,N/A,,Partly Cloudy,140,2013-06-19 15:53:00
12:53 PM,88.0,73.9,63,30.03,9.0,SE,15.0,20.7,N/A,,Partly Cloudy,130,2013-06-19 16:53:00
1:53 PM,88.0,73.0,61,30.02,9.0,SE,16.1,-,N/A,,Partly Cloudy,140,2013-06-19 17:53:00
2:53 PM,88.0,73.0,61,30.01,8.0,SSE,12.7,21.9,N/A,,Partly Cloudy,150,2013-06-19 18:53:00
3:53 PM,87.1,73.9,65,30.00,8.0,SE,13.8,21.9,N/A,,Partly Cloudy,140,2013-06-19 19:53:00
4:53 PM,84.9,75.0,72,30.00,9.0,SE,15.0,-,N/A,,Scattered Clouds,130,2013-06-19 20:53:00
5:53 PM,84.0,75.0,74,30.00,8.0,SSE,10.4,-,N/A,,Scattered Clouds,160,2013-06-19 21:53:00
6:53 PM,82.9,75.0,77,30.02,8.0,SE,8.1,-,N/A,,Scattered Clouds,130,2013-06-19 22:53:00
7:53 PM,82.9,75.0,77,30.02,8.0,SE,8.1,-,N/A,,Scattered Clouds,140,2013-06-19 23:53:00
8:53 PM,82.9,75.0,77,30.02,9.0,SE,10.4,-,N/A,,Partly Cloudy,130,2013-06-20 00:53:00
9:53 PM,82.9,73.9,74,30.04,10.0,SE,8.1,-,N/A,,Clear,140,2013-06-20 01:53:00
10:53 PM,82.9,73.9,74,30.04,10.0,SE,9.2,-,N/A,,Clear,130,2013-06-20 02:53:00
11:53 PM,82.9,75.0,77,30.04,10.0,SE,9.2,-,N/A,,Partly Cloudy,140,2013-06-20 03:53:00